Wetbulb
65.28 58.39 58.90 57.47 52.57 53.56 51.36 52.01 54.32 54.75 54.73 61.21 59.06 64.00 63.48 65.51 62.67 61.17 72.84 74.85 75.28 75.96 77.02 76.10 76.85 77.16 77.11 76.83 76.83 76.82 76.84 76.84 76.95 76.93 76.75 76.60 76.67 76.85 76.70 76.70 76.43 76.12 75.03 73.89 73.98 74.06 74.18 74.15 74.37
60.32 57.31 57.81 55.74 51.29 49.40 51.92 53.31 53.18 55.15 55.91 56.08 60.07 65.99 65.31 64.21 69.32 70.09 71.54 74.93 75.71 76.18 76.40 75.88 76.67 77.03 76.98 76.55 76.22 76.24 76.39 76.51 76.59 76.60 76.65 76.70 76.57 76.45 76.17 76.20 75.88 75.20 74.49 73.53 73.96 74.17 74.43 74.18 74.07
54.58 56.06 54.12 52.32 50.67 50.32 51.75 53.84 54.78 55.16 54.75 54.94 58.06 66.72 66.29 65.35 70.20 70.81 73.59 75.40 75.82 76.17 76.33 76.44 76.72 76.65 76.70 76.15 76.09 76.01 76.06 76.11 76.39 76.42 76.45 76.52 76.34 76.17 76.14 76.12 76.08 75.02 73.82 73.57 74.03 74.54 74.66 74.20 73.85
53.53 54.87 53.46 49.24 48.95 50.87 54.22 54.16 54.03 53.47 53.45 56.55 60.34 64.04 68.41 71.59 70.93 72.76 75.08 75.33 75.20 75.86 76.07 76.54 76.49 76.46 76.37 76.27 76.19 75.99 75.87 75.87 76.04 76.32 76.22 76.24 76.20 75.93 76.01 75.89 75.58 75.06 73.66 73.67 74.15 74.81 74.72 74.76 74.14
53.41 52.61 48.76 47.24 48.41 50.01 52.40 53.50 53.28 52.01 52.02 54.85 65.24 63.83 66.20 71.55 74.26 75.30 74.92 75.04 74.58 75.40 75.93 76.36 76.49 76.36 76.37 76.28 75.95 75.69 75.69 75.56 75.77 76.07 76.05 76.02 75.69 75.63 75.66 75.57 74.98 74.61 74.36 74.11 74.03 74.57 75.10 74.93 74.68
49.42 50.27 46.28 45.50 46.65 50.25 52.08 53.86 52.43 51.24 52.18 54.21 63.45 65.49 67.03 73.04 73.90 74.85 75.18 74.82 75.34 75.34 75.93 75.62 76.10 76.14 76.09 76.07 75.69 75.39 75.21 75.47 75.59 75.57 75.59 75.64 75.58 75.46 75.29 75.17 74.60 74.35 74.29 74.23 74.11 74.35 74.28 74.32 74.10
47.64 47.71 45.24 45.15 46.69 48.09 50.76 52.55 51.01 50.84 51.89 54.72 66.35 64.18 66.82 71.05 73.92 75.03 75.03 75.07 75.25 75.73 75.77 75.53 75.33 75.96 76.19 75.93 75.53 75.23 74.96 75.21 75.41 75.45 75.39 75.65 75.70 75.43 75.41 75.04 74.35 73.95 73.80 73.50 73.57 73.51 73.78 73.53 73.33
50.00 48.97 43.90 44.98 44.76 47.16 50.73 51.16 52.05 51.13 52.14 58.50 66.32 63.68 64.18 70.58 74.26 74.70 74.80 74.51 74.67 75.18 75.36 75.09 75.15 74.58 74.75 75.47 75.76 75.38 75.11 75.11 75.02 75.14 75.31 75.23 75.19 75.10 74.78 74.27 74.09 73.40 72.81 72.60 72.44 72.61 72.64 72.74 72.29
48.85 47.67 44.35 44.08 44.42 47.12 50.06 49.76 51.44 53.03 51.88 56.22 59.45 60.59 64.96 72.53 73.23 73.04 72.73 72.78 73.41 73.93 75.01 75.11 74.11 74.62 74.32 74.39 75.02 75.20 75.10 75.21 75.17 74.92 75.05 74.34 73.47 74.06 74.09 73.87 73.46 73.73 73.26 72.39 71.94 71.86 71.92 71.72 71.42
48.92 46.81 47.71 48.19 48.22 47.55 49.26 49.47 50.40 51.29 51.73 55.51 57.32 67.81 70.73 71.59 71.43 70.76 70.64 70.67 71.51 72.44 73.73 74.58 74.40 74.30 74.22 73.35 74.83 74.78 74.50 74.60 74.40 74.52 74.97 74.24 74.22 74.13 73.46 73.51 73.69 73.26 73.58 73.50 72.69 72.37 72.17 71.01 68.42
45.52 44.70 48.52 47.30 48.38 49.64 49.31 49.23 50.79 50.57 50.63 53.16 56.00 65.44 69.99 70.67 70.40 70.00 69.99 70.39 70.76 72.49 73.60 74.31 75.01 75.07 74.05 73.29 74.17 74.39 74.38 74.84 75.12 75.30 75.41 75.19 74.37 74.35 73.96 73.71 73.57 73.88 73.37 72.72 72.47 72.11 71.04 70.10 69.42
43.38 46.31 45.85 47.34 48.69 49.64 48.49 49.55 48.93 49.74 51.64 52.89 53.43 58.08 69.00 69.78 70.33 70.32 70.25 70.85 71.32 71.95 73.02 74.09 74.97 75.13 74.94 74.18 73.96 74.22 73.97 74.69 74.47 74.85 75.54 74.88 73.94 74.04 74.14 73.89 73.79 73.70 73.19 72.69 72.61 71.17 71.38 70.98 70.75
44.23 45.06 45.84 48.64 48.51 48.47 48.78 47.54 48.24 49.49 52.36 53.80 53.80 53.71 58.90 68.50 70.38 71.40 72.15 72.38 72.23 71.53 72.63 73.64 74.72 75.07 75.20 75.30 74.76 74.68 74.48 74.43 74.88 74.93 75.11 75.10 73.99 73.77 73.86 73.97 73.97 73.97 73.77 73.26 72.54 72.22 71.63 70.62 70.21
46.56 47.04 46.65 46.86 47.45 47.87 46.19 47.25 47.90 50.08 52.62 52.70 53.02 53.76 54.54 56.69 62.26 65.62 67.10 71.91 72.55 73.14 72.72 73.68 74.14 75.24 75.49 75.07 75.62 74.90 75.29 75.14 75.07 75.01 74.37 73.80 74.07 74.72 73.78 73.81 73.50 73.44 73.92 73.89 73.51 72.90 72.37 71.46 70.74
45.85 42.76 44.78 45.32 45.77 45.78 47.00 44.88 45.61 49.80 52.29 51.69 52.56 53.79 54.01 54.81 55.30 56.81 59.65 66.23 71.95 73.36 74.65 73.95 73.80 74.94 75.21 75.02 75.41 75.07 75.24 75.03 74.77 74.69 74.20 73.75 73.27 73.75 74.91 74.03 73.64 74.01 74.33 74.09 73.61 73.04 72.75 71.65 71.28
43.23 43.57 40.01 46.21 45.81 46.98 46.60 41.76 48.18 50.96 49.88 51.17 52.36 52.79 53.16 54.90 55.06 56.87 58.16 60.46 62.68 68.30 72.30 74.63 74.05 73.97 74.60 74.86 75.01 74.67 74.74 74.74 74.63 74.13 73.90 73.90 74.18 74.25 75.09 74.07 73.63 74.05 73.47 73.11 72.58 72.35 71.50 71.42 71.06
43.68 39.24 40.64 42.92 46.32 46.50 46.03 43.79 48.14 49.91 50.33 51.17 52.20 52.90 53.34 54.41 56.52 57.84 58.11 58.70 61.00 62.78 66.43 70.82 74.06 73.83 74.08 74.28 74.27 74.46 74.79 74.46 74.39 74.62 74.64 74.70 74.88 74.83 74.89 73.85 74.21 74.83 73.55 73.05 71.91 71.85 71.48 70.87 70.68
39.69 40.26 41.80 41.59 44.89 44.94 44.68 44.64 48.01 49.78 49.73 51.12 52.35 53.07 53.02 53.46 55.06 58.60 58.86 58.53 59.97 61.59 66.05 69.92 71.37 73.37 73.79 73.44 73.52 73.72 73.61 73.81 73.88 73.61 73.53 73.87 73.49 73.45 73.80 73.97 74.04 73.75 72.74 72.69 72.43 71.84 71.95 70.78 70.26
43.80 42.32 41.35 43.66 45.57 44.80 44.77 45.80 47.88 49.96 49.31 50.41 51.70 52.10 52.53 53.34 56.29 56.38 57.07 58.56 59.04 61.98 66.08 69.19 71.20 72.27 72.26 71.48 71.39 71.79 71.69 72.86 73.53 74.53 74.82 74.52 74.36 73.40 73.35 72.85 73.05 73.02 72.14 72.46 72.49 71.50 70.61 70.34 71.10
43.58 41.96 41.20 44.00 45.49 45.14 45.06 45.07 48.83 49.33 49.61 50.79 50.63 51.35 51.52 52.90 54.19 54.86 56.68 60.20 60.74 63.92 67.89 69.90 71.54 72.02 71.48 71.44 71.85 71.41 71.31 72.05 72.88 72.99 71.59 70.95 70.68 71.42 71.56 71.69 70.84 71.07 70.44 71.15 71.20 70.55 69.63 69.48 70.65
42.80 41.87 41.20 41.46 43.77 45.25 44.17 43.08 45.55 48.83 48.58 50.05 51.23 51.49 51.91 52.71 54.03 55.80 55.64 58.89 62.06 64.24 67.90 69.98 71.60 71.87 72.01 71.84 68.64 68.20 68.67 67.73 65.65 67.32 66.36 67.31 68.21 69.17 69.95 69.34 69.48 70.17 70.07 68.61 70.12 69.49 67.85 67.20 68.57
40.24 44.40 43.90 42.62 41.28 38.25 43.38 37.12 42.80 46.27 47.82 48.84 50.65 50.80 53.26 54.95 55.73 56.45 56.43 57.42 60.46 63.15 67.09 69.88 70.80 71.26 69.92 68.98 68.12 68.58 66.61 63.97 63.42 64.17 65.32 66.15 67.60 67.93 68.62 68.73 69.10 69.40 69.38 69.20 68.71 67.94 68.25 67.92 65.89
41.97 45.15 44.25 43.66 41.45 40.42 40.04 38.98 42.20 43.61 45.27 48.02 49.89 51.71 54.35 55.86 55.50 55.94 56.95 57.91 58.59 61.10 64.94 67.66 68.61 68.71 68.49 68.34 68.08 66.43 64.95 63.39 63.52 63.63 64.96 66.49 67.36 67.79 67.73 68.57 68.79 68.65 68.03 69.03 68.90 68.73 68.81 68.62 67.70
46.42 43.49 42.09 41.39 40.85 36.36 40.33 39.97 40.43 42.93 45.89 47.11 50.60 53.07 54.44 54.57 55.12 55.84 56.98 57.84 57.29 59.49 62.82 65.61 66.10 65.72 65.83 65.28 65.25 66.14 65.28 64.38 62.62 62.90 63.59 64.17 65.44 66.65 67.70 67.41 67.83 67.80 66.94 66.83 66.69 67.47 68.13 67.49 66.46
44.83 42.66 36.07 34.51 34.89 34.29 38.77 38.22 41.80 44.85 46.64 49.71 51.70 53.18 52.95 53.39 54.09 54.66 55.54 56.92 58.56 59.12 61.47 63.58 63.46 62.52 63.33 63.66 63.88 64.81 66.02 65.68 65.33 63.81 63.38 64.02 63.70 64.46 65.97 66.18 65.73 64.48 65.06 64.84 64.88 64.99 65.47 65.97 65.76
43.55 43.23 37.19 29.87 31.76 35.51 38.62 36.64 42.18 47.62 50.05 50.48 51.26 51.72 53.05 53.29 54.04 54.72 55.96 57.79 58.23 59.28 61.75 62.02 62.33 62.13 63.45 64.01 64.25 64.63 64.66 62.56 62.66 64.35 63.52 62.92 62.97 64.20 66.48 65.18 64.69 64.23 63.48 63.20 63.03 62.04 62.76 64.30 63.99
41.53 40.09 44.63 38.13 36.80 36.49 39.01 40.80 45.36 48.64 48.98 50.61 50.87 51.92 52.28 53.30 54.13 55.16 57.32 57.36 59.01 60.67 61.78 62.35 62.25 62.48 63.22 63.25 63.59 63.02 62.79 62.63 62.75 64.32 65.46 63.70 65.55 64.15 65.38 64.93 64.11 63.21 62.94 62.53 62.57 60.41 61.51 62.38 63.16
45.18 45.64 38.84 40.28 31.91 30.32 35.93 37.49 40.12 45.66 47.09 49.22 50.25 50.94 52.07 53.03 53.99 54.74 55.17 58.07 58.50 58.52 58.68 59.63 59.49 59.77 59.91 59.71 59.96 60.10 60.28 60.97 62.01 63.31 63.73 63.96 64.66 65.09 64.45 64.36 63.80 62.83 62.13 62.10 61.96 60.46 60.93 60.71 60.64
42.84 42.08 42.17 42.64 40.25 34.46 33.06 37.61 46.57 47.11 47.95 47.95 48.89 49.95 50.65 51.60 52.50 53.90 55.40 55.07 55.23 56.39 57.41 57.55 57.67 57.57 57.67 57.99 58.48 58.73 59.18 59.93 60.45 60.57 61.43 62.09 62.92 63.59 63.72 63.80 63.18 62.35 61.70 61.65 61.17 60.60 59.72 59.19 59.78
44.12 42.99 43.67 39.87 37.04 38.65 38.29 38.92 47.07 48.54 48.99 49.45 49.10 49.55 50.99 52.00 52.17 52.94 53.89 54.83 55.23 54.98 55.11 55.17 55.57 55.65 55.49 56.02 56.68 56.68 57.35 58.06 58.51 59.11 59.93 60.96 60.59 61.06 60.96 61.21 61.57 61.73 61.33 61.30 60.54 59.13 58.07 58.05 57.70
MSLP
1011.37 1011.34 1011.26 1010.88 1010.52 1009.19 1007.90 1007.36 1007.00 1005.95 1005.37 1005.39 1005.44 1005.29 1004.88 1005.00 1005.33 1006.57 1007.67 1008.12 1008.63 1009.30 1009.96 1010.78 1011.31 1011.53 1011.86 1012.11 1012.11 1012.28 1012.64 1012.87 1013.17 1013.50 1013.76 1014.03 1014.37 1014.71 1015.03 1015.35 1015.61 1015.80 1016.01 1016.20 1016.32 1016.45 1016.59 1016.72 1016.85
1011.25 1011.02 1010.73 1010.06 1009.24 1008.11 1007.39 1007.12 1006.59 1006.15 1005.53 1005.41 1005.10 1005.17 1005.05 1005.20 1006.01 1007.00 1007.62 1008.29 1008.67 1009.33 1010.03 1010.58 1011.35 1011.71 1012.01 1012.32 1012.42 1012.59 1012.96 1013.19 1013.45 1013.75 1014.07 1014.33 1014.67 1014.94 1015.25 1015.51 1015.74 1015.95 1016.11 1016.26 1016.42 1016.58 1016.76 1016.93 1017.06
1011.23 1011.09 1010.30 1009.36 1008.61 1007.41 1006.86 1006.83 1006.62 1006.13 1005.56 1005.39 1004.97 1005.03 1005.09 1005.36 1006.16 1006.53 1007.14 1008.11 1008.67 1009.32 1009.89 1010.47 1011.16 1011.68 1012.03 1012.49 1012.67 1012.83 1013.21 1013.48 1013.70 1014.01 1014.32 1014.65 1015.00 1015.29 1015.60 1015.82 1016.00 1016.17 1016.35 1016.51 1016.67 1016.82 1016.96 1017.14 1017.31
1011.01 1010.72 1010.76 1009.38 1008.04 1007.59 1006.91 1006.75 1006.65 1005.92 1005.24 1005.38 1005.18 1004.97 1005.32 1005.81 1006.09 1006.73 1007.54 1008.21 1008.81 1009.39 1009.85 1010.64 1011.15 1011.50 1011.91 1012.34 1012.64 1012.87 1013.24 1013.58 1013.83 1014.16 1014.51 1014.84 1015.07 1015.47 1015.79 1015.98 1016.17 1016.27 1016.36 1016.52 1016.70 1016.91 1017.12 1017.25 1017.33
1011.22 1010.72 1009.70 1008.95 1008.04 1007.50 1007.07 1006.80 1006.53 1005.88 1005.56 1005.15 1005.29 1005.09 1005.55 1006.14 1006.64 1007.20 1007.84 1008.50 1008.75 1009.43 1009.93 1010.63 1011.38 1011.79 1012.05 1012.50 1012.78 1012.97 1013.32 1013.66 1013.98 1014.30 1014.67 1015.05 1015.34 1015.60 1015.83 1016.05 1016.22 1016.32 1016.44 1016.65 1016.88 1017.10 1017.30 1017.46 1017.53
1010.82 1010.96 1009.45 1008.58 1008.06 1007.47 1007.00 1006.58 1006.29 1005.92 1005.32 1005.11 1005.20 1005.41 1005.77 1006.60 1006.85 1007.41 1008.00 1008.54 1009.11 1009.64 1010.02 1010.59 1011.47 1011.99 1012.31 1012.62 1012.92 1013.15 1013.44 1013.84 1014.17 1014.45 1014.76 1015.10 1015.47 1015.79 1016.00 1016.18 1016.38 1016.60 1016.79 1016.96 1017.18 1017.39 1017.56 1017.67 1017.78
1010.75 1010.49 1009.26 1008.80 1008.09 1007.47 1006.79 1006.55 1006.04 1005.91 1005.55 1005.14 1005.23 1005.29 1005.98 1006.80 1007.25 1007.68 1008.23 1008.79 1009.39 1009.89 1010.28 1010.66 1011.11 1011.76 1012.32 1012.58 1012.86 1013.09 1013.39 1013.80 1014.18 1014.54 1014.87 1015.22 1015.52 1015.76 1016.00 1016.24 1016.43 1016.57 1016.76 1016.99 1017.21 1017.42 1017.55 1017.65 1017.80
1011.05 1010.60 1009.64 1008.91 1008.21 1007.36 1007.08 1006.61 1006.04 1006.02 1005.62 1005.54 1005.35 1005.17 1005.85 1006.69 1007.69 1008.17 1008.53 1009.02 1009.44 1010.00 1010.28 1010.58 1011.07 1011.51 1012.06 1012.44 1012.85 1013.05 1013.34 1013.68 1014.05 1014.43 1014.81 1015.16 1015.52 1015.83 1016.10 1016.36 1016.62 1016.90 1017.07 1017.17 1017.33 1017.49 1017.64 1017.70 1017.66
1011.39 1010.55 1009.57 1008.88 1008.51 1007.50 1007.20 1006.57 1006.00 1006.23 1006.11 1005.80 1005.65 1005.76 1006.18 1006.83 1007.84 1008.20 1008.59 1009.13 1009.51 1009.92 1010.26 1010.50 1010.94 1011.43 1011.84 1012.19 1012.72 1013.22 1013.48 1013.78 1014.15 1014.47 1014.83 1015.19 1015.17 1015.45 1015.74 1015.96 1016.32 1016.55 1016.83 1017.21 1017.26 1017.43 1017.45 1017.59 1017.72
1010.76 1010.42 1009.61 1009.13 1008.69 1007.90 1007.41 1006.99 1006.66 1006.12 1006.07 1006.06 1006.04 1006.32 1006.61 1007.00 1007.64 1007.90 1008.07 1008.52 1009.06 1009.41 1009.94 1010.47 1010.97 1011.36 1011.71 1012.07 1012.49 1012.84 1013.13 1013.45 1013.75 1014.11 1014.60 1014.84 1015.11 1015.45 1015.69 1016.01 1016.46 1016.54 1016.71 1016.66 1016.95 1017.08 1017.24 1017.25 1016.85
1010.48 1010.06 1009.97 1009.38 1008.95 1008.42 1007.75 1007.24 1006.90 1006.23 1005.98 1006.17 1006.06 1006.23 1006.53 1006.94 1007.33 1007.61 1007.81 1008.03 1008.47 1009.19 1009.75 1010.40 1010.98 1011.26 1011.48 1011.63 1012.17 1012.49 1012.78 1013.15 1013.63 1013.98 1014.33 1014.62 1014.89 1015.12 1015.37 1015.51 1015.81 1016.06 1016.44 1016.33 1016.52 1016.61 1016.46 1016.53 1016.56
1010.11 1010.15 1010.05 1009.54 1008.91 1008.49 1008.00 1007.73 1007.01 1006.66 1006.02 1006.36 1006.56 1006.47 1006.45 1006.68 1006.89 1007.18 1007.51 1007.98 1008.49 1009.01 1009.47 1010.11 1010.80 1011.18 1011.33 1011.46 1011.80 1011.96 1012.23 1012.61 1013.07 1013.59 1014.13 1014.36 1014.60 1014.93 1015.10 1015.19 1015.44 1015.84 1015.80 1015.92 1016.09 1016.01 1016.19 1016.26 1016.38
1010.74 1009.74 1010.17 1010.31 1009.28 1008.50 1008.33 1007.83 1007.53 1006.33 1006.07 1006.34 1006.37 1006.34 1006.25 1006.30 1006.56 1006.99 1007.19 1007.71 1008.25 1008.68 1009.03 1009.59 1010.31 1010.70 1011.10 1011.46 1011.40 1011.67 1012.00 1012.32 1012.65 1013.25 1013.74 1014.03 1014.18 1014.57 1014.79 1014.92 1015.10 1015.27 1015.30 1015.41 1015.64 1015.71 1015.66 1015.63 1015.73
1009.29 1009.87 1009.85 1009.72 1008.82 1008.00 1008.19 1007.63 1007.77 1006.34 1006.10 1006.13 1006.20 1005.90 1005.99 1006.03 1006.22 1006.67 1006.99 1007.21 1007.77 1008.06 1008.32 1008.90 1009.53 1010.05 1010.55 1010.83 1011.10 1011.48 1011.80 1012.10 1012.57 1012.75 1013.28 1014.00 1014.16 1014.21 1014.34 1014.59 1014.60 1014.80 1015.04 1014.94 1015.04 1015.27 1015.44 1015.42 1015.56
1008.95 1009.23 1009.21 1008.92 1008.62 1008.02 1007.93 1007.37 1006.84 1006.24 1005.76 1005.76 1005.77 1005.66 1005.92 1005.96 1006.31 1006.27 1006.38 1006.92 1007.11 1007.29 1007.56 1008.19 1008.86 1009.55 1009.96 1010.31 1010.73 1011.12 1011.36 1011.78 1012.13 1012.51 1013.26 1013.56 1013.94 1014.03 1014.00 1014.13 1014.13 1014.14 1014.46 1014.67 1014.78 1014.93 1014.94 1015.11 1015.07
1008.34 1008.87 1008.18 1007.51 1007.99 1007.78 1007.77 1005.78 1005.98 1005.69 1005.49 1005.43 1005.32 1005.22 1005.61 1005.72 1005.94 1006.08 1006.38 1006.69 1006.99 1007.42 1007.51 1007.86 1008.39 1008.94 1009.62 1009.92 1010.34 1010.70 1010.98 1011.30 1011.73 1012.43 1012.82 1013.11 1013.46 1013.81 1014.01 1013.60 1013.70 1013.81 1014.20 1014.16 1014.30 1014.48 1014.37 1014.45 1014.36
1007.93 1007.02 1007.45 1007.23 1007.07 1007.14 1007.49 1006.03 1005.53 1005.68 1005.49 1005.27 1005.26 1005.21 1005.07 1005.09 1005.45 1005.75 1005.80 1006.22 1006.62 1006.97 1007.42 1007.62 1007.90 1008.28 1008.84 1009.51 1010.06 1010.52 1010.82 1011.26 1011.38 1011.91 1012.29 1012.63 1012.81 1012.93 1013.68 1013.29 1013.21 1013.57 1013.70 1013.72 1013.90 1014.03 1013.95 1013.76 1013.85
1006.79 1006.86 1006.81 1006.72 1006.97 1006.90 1006.39 1005.79 1005.54 1005.36 1005.43 1005.18 1005.03 1005.02 1005.05 1004.94 1004.80 1004.86 1005.48 1005.89 1006.12 1006.55 1007.01 1007.33 1007.60 1007.91 1008.66 1009.27 1009.83 1010.27 1010.62 1011.02 1011.31 1011.56 1011.85 1012.16 1012.45 1012.66 1012.97 1012.76 1012.98 1013.23 1013.46 1013.43 1013.70 1013.75 1013.63 1013.62 1013.52
1006.42 1006.58 1006.69 1006.85 1006.76 1006.38 1006.25 1005.65 1005.24 1005.05 1005.35 1005.02 1004.75 1004.79 1004.61 1004.50 1004.47 1005.27 1005.46 1005.79 1006.07 1006.28 1006.56 1006.78 1007.13 1007.59 1008.29 1008.89 1009.26 1009.67 1009.91 1010.61 1011.05 1011.37 1011.60 1011.69 1011.89 1012.06 1012.39 1012.65 1012.71 1012.81 1013.05 1013.09 1013.21 1013.34 1013.47 1013.01 1013.16
1006.54 1006.45 1006.99 1006.90 1006.62 1006.50 1006.29 1005.65 1005.38 1005.06 1004.80 1004.60 1004.58 1004.73 1004.73 1004.53 1004.78 1005.27 1005.32 1005.49 1005.86 1005.95 1005.91 1006.48 1006.90 1007.34 1007.89 1008.40 1008.78 1009.15 1009.83 1010.54 1010.96 1011.36 1011.43 1011.63 1011.70 1011.81 1012.00 1012.27 1012.38 1012.61 1012.69 1012.90 1012.91 1012.95 1012.74 1012.67 1012.81
1006.45 1006.42 1006.85 1006.74 1006.82 1006.66 1006.40 1005.73 1005.30 1004.69 1004.72 1004.61 1004.55 1004.84 1004.74 1004.52 1004.64 1005.01 1004.94 1005.26 1005.63 1005.91 1005.91 1006.21 1006.45 1006.91 1007.61 1008.24 1009.06 1009.55 1010.13 1010.81 1011.19 1011.40 1011.68 1011.78 1011.72 1011.86 1011.94 1011.96 1012.18 1012.45 1012.62 1012.48 1012.52 1012.57 1012.77 1012.47 1012.34
1006.67 1006.91 1006.81 1006.90 1007.23 1006.62 1006.62 1005.65 1005.41 1005.00 1004.65 1004.59 1004.42 1004.42 1004.40 1004.41 1004.61 1004.81 1005.01 1004.88 1004.90 1004.72 1005.41 1006.01 1006.56 1007.15 1007.72 1008.02 1008.57 1009.00 1009.33 1010.04 1010.70 1011.14 1011.53 1011.68 1011.73 1011.80 1011.87 1011.84 1012.00 1012.23 1012.24 1012.30 1012.35 1012.55 1012.42 1012.46 1012.13
1005.99 1006.44 1006.61 1006.78 1006.89 1006.80 1006.53 1005.97 1005.27 1005.29 1004.53 1004.27 1004.28 1004.36 1004.44 1004.66 1005.09 1005.12 1005.00 1004.93 1004.76 1005.00 1005.48 1006.04 1006.53 1007.23 1007.72 1008.04 1008.26 1008.82 1009.32 1009.91 1010.47 1011.11 1011.52 1011.55 1011.73 1011.78 1011.79 1011.89 1011.94 1012.08 1012.08 1012.14 1012.02 1011.95 1011.89 1011.85 1011.96
1005.74 1006.13 1006.52 1006.73 1006.66 1006.01 1005.80 1005.68 1005.03 1004.92 1004.55 1004.53 1004.48 1004.53 1004.81 1004.98 1005.16 1005.21 1005.21 1005.08 1004.98 1005.32 1005.62 1006.08 1006.57 1007.07 1007.67 1008.14 1008.49 1008.62 1009.07 1009.52 1010.10 1010.53 1010.83 1011.16 1011.46 1011.77 1011.77 1011.64 1011.72 1011.87 1011.94 1011.89 1011.73 1011.71 1011.69 1011.64 1011.67
1005.66 1005.75 1006.02 1006.30 1006.17 1005.69 1006.07 1005.75 1004.79 1005.06 1005.12 1005.06 1004.79 1004.80 1005.26 1005.49 1005.41 1005.47 1005.49 1005.43 1005.61 1005.75 1005.93 1006.16 1006.66 1007.30 1007.78 1008.20 1008.55 1008.60 1008.77 1009.10 1009.39 1009.88 1010.14 1010.55 1010.95 1011.22 1011.40 1011.36 1011.42 1011.43 1011.50 1011.52 1011.56 1011.50 1011.40 1011.38 1011.26
1005.14 1005.28 1005.09 1005.54 1005.91 1005.87 1006.65 1005.47 1004.96 1005.53 1005.85 1005.78 1005.74 1005.82 1005.74 1005.86 1006.11 1006.08 1006.24 1006.22 1006.04 1006.06 1006.17 1006.21 1006.68 1007.29 1007.80 1007.97 1008.15 1008.52 1008.80 1009.01 1009.34 1009.61 1009.59 1009.94 1010.13 1010.35 1010.72 1010.96 1011.04 1010.99 1010.97 1011.06 1011.15 1011.21 1011.14 1011.16 1011.02
1005.29 1005.50 1005.69 1006.05 1007.21 1006.70 1006.14 1006.12 1005.90 1006.08 1006.29 1006.34 1006.47 1006.57 1006.64 1006.55 1006.40 1006.23 1006.24 1006.49 1006.40 1006.42 1006.51 1006.43 1006.56 1007.15 1007.70 1007.96 1008.23 1008.60 1009.01 1009.31 1009.26 1009.52 1009.63 1009.62 1009.73 1009.75 1010.16 1010.44 1010.61 1010.63 1010.60 1010.65 1010.73 1010.75 1010.87 1010.96 1010.81
1004.77 1005.40 1006.18 1006.43 1006.58 1006.66 1006.41 1006.25 1005.48 1006.23 1006.52 1006.73 1006.79 1007.08 1007.19 1007.04 1006.64 1006.61 1006.52 1006.52 1006.81 1007.03 1007.31 1007.39 1007.53 1007.82 1008.36 1008.73 1009.16 1009.33 1009.66 1009.86 1009.89 1009.86 1009.71 1009.64 1009.55 1009.54 1009.63 1009.79 1009.93 1010.09 1010.13 1010.20 1010.29 1010.21 1010.21 1010.32 1010.17
1005.64 1005.59 1006.24 1006.42 1007.07 1006.57 1006.47 1005.91 1006.08 1006.58 1007.00 1007.35 1007.59 1007.65 1007.60 1007.47 1007.25 1007.13 1007.05 1007.22 1007.24 1007.29 1007.36 1007.72 1007.93 1008.30 1008.72 1009.08 1009.36 1009.59 1009.66 1009.70 1009.70 1009.67 1009.56 1009.57 1009.66 1009.67 1009.59 1009.52 1009.61 1009.67 1009.60 1009.55 1009.57 1009.49 1009.46 1009.50 1009.43
1006.21 1006.16 1006.34 1006.59 1007.62 1007.88 1007.32 1006.46 1006.85 1007.10 1007.54 1007.79 1007.92 1007.97 1007.88 1007.90 1007.87 1007.79 1007.70 1007.78 1007.84 1008.02 1008.33 1008.57 1008.71 1008.81 1009.11 1009.23 1009.32 1009.32 1009.44 1009.50 1009.39 1009.22 1009.13 1009.25 1009.36 1009.25 1009.14 1009.11 1009.04 1008.96 1008.94 1009.02 1009.03 1008.84 1008.53 1008.52 1008.42
Wind_Speed
10 7 3 4 5 2 3 2 3 5 6 1 8 6 3 2 1 3 4 7 15 18 17 17 14 14 12 12 16 16 16 17 17 17 17 17 16 15 13 12 11 11 11 11 11 12 12 12 11
7 3 3 2 5 7 5 3 4 5 12 12 2 5 4 2 2 8 13 10 19 18 17 17 16 15 14 12 14 16 16 16 16 16 16 15 14 14 13 12 11 11 11 11 11 12 11 10 10
4 2 4 4 3 10 6 5 4 10 13 4 2 1 1 2 3 13 5 16 20 18 17 17 18 17 16 14 13 14 15 15 16 16 15 14 13 12 11 10 9 10 10 10 11 11 10 9 9
2 3 2 5 9 6 6 5 3 9 3 2 3 2 3 5 8 5 16 18 19 16 16 18 18 18 18 18 17 16 15 15 15 15 15 14 14 12 10 10 9 9 10 11 11 10 9 9 9
2 1 4 5 8 3 5 4 2 6 6 5 2 2 4 3 6 12 16 16 19 16 14 17 15 16 17 17 17 17 17 16 15 15 14 13 12 11 11 10 9 9 9 10 10 9 7 7 7
1 2 5 11 5 5 3 5 2 3 5 6 4 4 4 3 8 12 14 16 16 16 15 15 14 13 14 15 15 16 16 15 14 14 13 12 11 9 9 8 8 6 5 5 6 5 4 4 4
2 2 5 3 5 4 4 5 4 2 6 2 0 6 1 4 5 12 12 14 14 14 14 13 15 14 14 15 15 15 15 15 14 12 11 10 10 9 8 7 7 7 6 4 4 3 3 4 4
2 2 3 4 5 5 2 3 5 1 3 5 3 6 2 5 10 11 12 13 14 13 13 14 13 14 13 13 14 15 15 15 14 13 11 10 9 8 7 5 5 3 2 2 1 2 3 5 5
2 6 9 8 5 3 1 2 3 3 4 2 2 1 1 16 13 12 12 11 11 11 12 12 13 13 13 12 12 12 13 12 11 11 10 9 8 9 9 6 6 7 5 2 3 3 4 4 7
8 8 13 7 6 4 1 1 5 1 7 2 2 5 12 16 14 13 13 14 14 15 14 12 12 12 12 10 11 11 10 10 10 9 10 8 7 6 6 5 7 7 7 8 7 7 7 7 5
6 13 13 11 10 6 5 6 3 2 1 2 2 7 13 13 13 12 12 14 15 13 12 13 12 12 13 10 9 7 6 7 7 10 9 8 6 6 6 5 5 6 7 5 7 7 7 7 6
9 11 5 5 6 7 7 2 5 5 5 3 5 1 11 12 12 13 12 13 13 14 13 14 13 12 12 9 9 9 8 8 7 9 10 7 6 7 6 5 5 5 4 5 6 5 6 7 9
11 12 9 18 21 15 10 12 11 10 12 10 12 6 9 12 13 12 12 11 11 13 14 15 15 14 12 12 9 9 8 8 9 8 9 8 8 7 6 6 6 6 5 6 6 7 7 8 9
16 17 18 10 16 8 7 9 8 10 11 10 5 8 6 8 11 8 9 13 14 14 16 16 18 17 15 13 13 9 8 8 8 8 7 10 7 7 7 7 7 7 7 7 6 7 7 7 8
7 14 17 18 13 12 2 12 12 11 12 13 10 8 8 9 6 11 11 13 16 16 15 17 17 16 17 16 13 10 9 9 8 7 8 9 9 9 10 7 8 8 7 8 8 8 7 8 8
11 10 9 10 15 8 8 22 5 11 6 13 11 8 8 11 13 12 10 11 10 10 13 14 13 15 15 14 12 9 9 9 8 7 7 10 10 9 8 7 7 7 6 7 7 7 7 8 7
9 12 13 3 14 9 18 11 7 1 6 10 9 10 10 12 11 12 13 13 11 12 10 13 14 15 16 13 10 10 11 9 8 7 7 10 10 8 11 6 7 7 7 6 7 8 7 7 7
13 12 7 14 8 7 12 7 6 3 6 10 10 10 11 14 16 14 9 10 11 9 8 8 10 12 13 10 10 8 8 7 7 6 6 8 7 9 8 7 7 6 7 7 7 8 7 8 8
9 8 10 5 4 5 10 7 9 4 7 9 8 8 11 13 13 5 6 9 10 10 10 12 12 12 11 10 9 8 9 7 6 5 7 7 6 7 8 7 7 6 7 8 8 8 9 9 7
8 7 6 5 4 4 5 7 8 6 5 5 5 7 9 7 7 5 4 5 9 10 12 11 13 13 11 9 7 5 8 5 5 5 6 6 7 6 6 5 4 4 4 6 7 8 7 7 6
6 10 6 6 1 3 3 6 6 5 3 5 6 6 5 5 7 4 3 7 9 11 12 12 12 12 11 9 7 7 8 7 5 7 5 5 5 5 5 4 3 3 4 4 6 7 8 8 6
11 10 10 9 6 7 3 4 5 5 6 6 4 3 2 3 3 4 5 6 10 13 13 13 10 11 10 13 10 11 8 9 6 6 5 5 5 5 5 4 4 3 2 4 4 5 6 6 7
6 9 12 9 7 4 5 5 4 3 7 7 3 1 3 5 6 10 10 8 9 9 10 9 9 9 11 11 12 9 10 7 8 6 8 5 6 7 7 7 5 4 4 4 5 5 6 7 6
10 5 5 3 3 8 7 7 6 6 7 2 0 4 6 9 9 9 10 9 8 6 8 8 10 10 12 11 12 12 12 10 9 8 7 6 6 6 7 7 6 5 5 5 5 5 6 6 6
6 8 4 5 6 5 3 5 7 2 2 3 7 8 8 10 11 11 11 10 6 5 7 10 11 11 10 12 11 12 11 11 10 9 8 9 7 7 9 8 8 6 6 6 5 5 6 6 7
10 10 5 7 5 3 2 5 2 3 3 3 4 5 8 10 9 10 9 7 5 4 9 12 12 12 11 12 11 8 8 6 6 9 7 8 8 9 10 10 9 9 8 6 5 5 6 6 7
7 7 3 3 3 3 3 2 4 2 4 6 8 7 9 10 10 9 8 7 5 6 8 11 12 10 9 8 5 5 6 8 8 9 8 7 8 8 10 11 11 10 9 9 7 6 8 7 8
9 12 6 3 7 8 4 5 7 7 6 6 10 11 9 13 13 10 9 5 3 3 3 5 4 4 5 4 4 4 5 7 8 7 10 9 9 10 10 12 12 12 11 11 10 8 9 9 8
7 6 3 3 2 7 8 5 2 9 9 10 10 9 9 10 10 10 8 7 6 5 4 4 4 5 5 5 5 6 7 8 8 8 9 10 10 11 12 12 12 13 13 13 12 12 11 11 11
2 4 4 6 8 0 4 7 2 11 7 5 7 9 10 8 7 7 6 6 7 8 8 7 7 7 6 5 5 4 4 4 5 7 8 9 11 11 12 13 14 15 15 15 15 15 14 15 15
Wind_Direction
311 321 190 193 224 234 203 205 292 328 336 89 319 241 252 11 239 355 124 143 141 149 149 157 153 151 150 144 134 129 129 130 130 129 128 130 134 137 139 144 145 144 142 139 138 135 133 132 134
321 306 192 169 230 204 196 170 193 303 310 318 248 201 211 109 80 106 134 153 151 148 152 155 154 153 152 148 136 131 131 130 129 127 130 133 138 140 143 146 147 150 150 147 146 145 143 142 142
295 1 256 226 203 215 209 171 151 303 309 293 274 319 130 76 145 153 136 154 154 156 158 155 155 155 152 149 140 131 130 130 129 131 135 138 139 139 143 147 149 153 151 152 154 153 150 152 154
328 176 133 233 213 205 219 129 308 311 329 89 271 170 112 6 135 144 142 152 156 157 160 152 156 158 156 154 151 144 140 138 137 140 142 144 144 144 147 150 156 160 162 165 165 162 161 162 164
51 238 212 226 226 259 223 264 257 295 294 323 181 193 122 99 92 131 145 156 159 159 163 159 159 160 156 157 154 148 146 145 145 146 148 149 150 152 156 161 167 171 171 174 174 171 171 175 179
137 293 212 227 214 226 235 219 211 256 294 306 233 169 137 107 137 147 151 160 163 161 163 160 158 160 159 159 156 151 148 149 151 151 152 152 155 160 165 168 171 177 180 183 182 182 188 192 208
220 244 238 226 235 241 202 182 162 294 286 279 160 186 352 166 131 147 149 156 160 164 165 165 170 170 167 162 159 157 154 155 155 154 154 157 162 168 174 176 177 184 183 188 192 208 215 224 237
157 247 237 217 235 245 168 265 112 229 301 326 203 188 186 128 140 140 144 156 162 171 175 171 174 176 179 172 166 162 159 158 158 159 162 163 168 174 181 185 195 209 213 204 228 262 282 273 259
173 233 245 240 196 252 293 351 85 293 286 306 318 294 97 136 141 139 141 154 170 181 184 182 180 181 183 179 173 165 164 160 160 166 168 168 194 192 191 194 171 183 183 221 205 242 239 267 278
210 230 238 252 237 258 264 310 313 324 344 231 151 76 132 145 155 161 168 173 187 189 190 189 189 188 184 182 178 182 177 183 184 185 185 199 197 204 218 211 208 203 203 183 195 207 235 235 250
189 238 249 266 243 248 259 290 340 360 308 343 144 149 152 163 167 180 182 191 196 194 194 197 193 191 194 189 183 183 185 183 188 191 193 199 198 198 206 209 210 219 205 228 212 215 219 246 255
219 236 242 273 247 241 249 268 272 266 228 352 330 193 163 176 184 188 190 192 191 198 202 196 201 197 199 198 196 189 192 188 188 197 197 200 205 208 218 222 223 224 220 225 232 238 247 236 246
243 223 203 255 255 250 271 258 265 252 261 279 289 249 196 187 196 202 205 202 198 205 204 202 200 202 200 203 203 204 203 196 195 196 201 214 218 216 218 225 230 236 224 227 236 244 239 245 246
198 223 236 252 251 244 239 256 198 242 245 262 253 228 223 203 196 205 215 214 207 210 211 204 205 202 199 205 204 202 202 198 200 196 201 211 222 220 223 225 232 239 245 247 247 246 258 257 264
179 199 223 211 247 258 182 247 214 243 250 258 255 244 227 226 217 214 211 211 216 215 214 208 205 201 205 205 202 203 199 199 201 198 204 206 207 221 227 227 235 240 243 248 251 252 250 256 257
197 229 228 209 196 229 174 259 248 223 203 245 256 245 232 235 227 233 226 227 214 223 217 210 203 202 206 207 202 204 197 196 201 194 198 201 208 210 235 231 239 241 238 241 243 252 256 256 257
191 209 210 238 200 176 200 243 230 46 198 239 242 250 250 252 236 232 232 220 217 211 207 207 203 203 204 202 202 201 204 209 205 204 207 208 208 211 232 241 251 249 247 245 245 244 243 260 261
184 203 195 205 187 212 195 230 273 266 228 229 243 253 251 244 242 240 221 231 234 223 218 220 203 200 193 188 191 198 201 203 205 207 209 204 210 216 225 238 244 244 249 250 252 264 258 267 270
190 200 213 195 163 167 199 219 264 277 232 234 239 272 267 244 244 260 243 230 222 212 213 215 201 188 176 185 184 192 194 182 180 183 192 193 203 207 213 232 240 239 245 254 254 257 259 261 251
199 201 205 260 252 202 219 242 264 251 239 234 264 279 262 248 246 264 201 196 216 229 212 206 210 184 184 186 180 174 163 160 150 146 135 156 165 166 182 200 211 227 236 244 252 247 252 254 238
203 222 207 243 73 234 255 245 230 233 237 243 248 266 261 238 269 251 222 191 195 224 222 218 207 188 177 168 142 111 110 113 139 150 155 157 154 162 171 169 185 205 228 258 261 255 244 253 242
205 204 216 223 210 229 224 240 216 218 238 235 243 261 313 349 309 285 243 227 213 221 206 212 205 190 165 159 150 151 152 156 159 165 162 165 173 169 169 182 186 204 230 242 246 255 261 258 257
218 191 207 216 208 208 173 243 195 237 230 231 184 305 335 346 331 315 319 302 260 245 227 214 188 178 165 160 152 148 149 152 149 159 164 175 177 192 193 192 189 210 233 238 250 257 253 253 252
153 118 78 99 176 240 195 222 191 201 218 216 279 356 351 345 340 332 325 322 301 260 214 188 165 148 151 156 159 157 156 155 161 167 169 180 186 193 200 190 192 204 223 238 255 268 262 260 265
175 169 167 207 217 253 43 225 273 163 316 316 329 340 2 353 348 344 340 330 307 247 196 154 145 141 149 155 167 170 166 169 169 171 183 183 192 202 202 201 203 208 215 224 243 254 268 263 260
189 196 196 207 216 221 108 242 127 38 28 25 23 24 33 29 13 10 360 344 313 218 161 143 147 150 168 173 175 174 165 176 194 201 197 201 204 203 201 206 212 216 216 218 220 242 252 250 248
159 201 239 122 57 250 214 210 248 124 100 88 65 56 45 36 20 27 36 30 33 147 157 161 161 160 175 185 184 195 203 214 217 218 214 219 221 213 206 207 214 221 221 220 217 228 233 242 245
217 151 166 195 216 234 194 251 245 144 113 76 69 57 41 17 20 18 15 42 66 56 60 57 45 40 28 356 319 281 277 268 266 262 249 247 248 234 223 216 218 222 222 222 222 229 227 229 238
151 174 94 129 250 234 248 224 148 147 113 93 74 41 18 12 7 11 13 24 22 23 33 34 11 349 337 310 288 277 273 260 250 250 255 256 263 259 258 255 252 245 235 228 225 230 234 231 234
53 124 182 219 193 141 275 255 147 142 123 77 43 12 1 11 2 2 8 27 46 49 44 52 55 60 52 43 28 22 341 297 275 273 275 266 252 252 251 252 251 250 247 243 237 237 234 231 233